Fort Madison, IA

2:31 AM CST on January 22, 2017 (GMT -0600)
Fort Madison Municipal

Weather History for KFSW - February, 2013

Change the Weather History Date:

Sunday, February 3, 2013

  Actual Average Record
Temperature  
Mean Temperature 24 °F -  
Max Temperature 28 °F 32 °F 66 °F (1992)
Min Temperature 19 °F 15 °F -10 °F (1963)
Degree Days  
Heating Degree Days 42    
Moisture  
Dew Point 16 °F    
Average Humidity 73    
Maximum Humidity 100    
Minimum Humidity 51    
Precipitation  
Precipitation 0.00 in - - ()
Sea Level Pressure  
Sea Level Pressure 30.06 in    
Wind  
Wind Speed 10 mph (WSW)    
Max Wind Speed 30 mph    
Max Gust Speed 40 mph    
Visibility 10 miles    
Events Snow    
Averages and records for this station are not official NWS values.
T = Trace of Precipitation, MM = Missing Value Source: NWS Daily Summary

Daily Weather History Graph

Daily Weather History Graph

Search for Another Location

Airport or City:

Trip Planner

Search our weather history database for the weather conditions in past years. The results will help you decide how hot, cold, wet, or windy it might be!

Date:

Astronomy

Feb. 03, 2013 Rise Set
Actual Time 7:12 AM CST 5:25 PM CST
Civil Twilight 6:44 AM CST 5:54 PM CST
Nautical Twilight 6:11 AM CST 6:27 PM CST
Astronomical Twilight 5:39 AM CST 6:59 PM CST
Moon 12:40 AM CST (2/3) 11:03 AM CST (2/3)
Length of Visible Light 11h 10m
Length of Day
10h 13m
Waning Gibbous, 48% of the Moon is Illuminated
Feb 3
Waning Gibbous
Feb 10
New
Feb 17
First Quarter
Feb 25
Full
Mar 4
Last Quarter

Hourly Weather History & Observations

Time (CST) Temp. Windchill Dew Point Humidity Pressure Visibility Wind Dir Wind Speed Gust Speed Precip Events Conditions
12:15 AM 19.4 °F 14.3 °F 17.6 °F 93% 30.02 in 5.0 mi SSE 3.5 mph - N/A Snow Light Snow
12:35 AM 19.4 °F 14.3 °F 17.6 °F 93% 30.01 in 4.0 mi SSE 3.5 mph - N/A Snow Light Snow
12:55 AM 19.4 °F 11.5 °F 17.6 °F 93% 30.00 in 7.0 mi South 5.8 mph - N/A Snow Light Snow
1:15 AM 19.4 °F 12.8 °F 19.4 °F 100% 29.99 in 10.0 mi South 4.6 mph - N/A   Overcast
1:35 AM 19.4 °F 14.3 °F 19.4 °F 100% 30.00 in 10.0 mi SSW 3.5 mph - N/A   Overcast
1:55 AM 21.2 °F 14.9 °F 19.4 °F 93% 30.00 in 10.0 mi West 4.6 mph - N/A   Overcast
2:15 AM 21.2 °F 12.6 °F 19.4 °F 93% 29.99 in 10.0 mi SSW 6.9 mph - N/A   Overcast
2:35 AM 21.2 °F 12.6 °F 19.4 °F 93% 29.99 in 10.0 mi SW 6.9 mph - N/A   Overcast
2:55 AM 21.2 °F 12.6 °F 21.2 °F 100% 30.00 in 10.0 mi WSW 6.9 mph - N/A   Overcast
3:15 AM 23.0 °F 18.4 °F 21.2 °F 93% 29.99 in 10.0 mi West 3.5 mph - N/A   Overcast
3:35 AM 23.0 °F 17.0 °F 21.2 °F 93% 29.99 in 10.0 mi WSW 4.6 mph - N/A   Overcast
3:55 AM 23.0 °F 13.1 °F 21.2 °F 93% 30.00 in 10.0 mi West 9.2 mph - N/A   Overcast
4:15 AM 24.8 °F 16.1 °F 23.0 °F 93% 30.00 in 10.0 mi West 8.1 mph - N/A   Overcast
4:35 AM 26.6 °F 12.4 °F 21.2 °F 80% 30.00 in 10.0 mi NW 21.9 mph 27.6 mph N/A   Overcast
4:55 AM 26.6 °F 11.7 °F 19.4 °F 74% 30.01 in 5.0 mi NW 24.2 mph 35.7 mph N/A   Haze
5:15 AM 24.8 °F 8.7 °F 19.4 °F 80% 30.02 in 7.0 mi NW 26.5 mph 34.5 mph N/A   Overcast
5:35 AM 24.8 °F 9.3 °F 17.6 °F 74% 30.03 in 7.0 mi NW 24.2 mph 36.8 mph N/A   Overcast
5:55 AM 23.0 °F 6.6 °F 15.8 °F 74% 30.05 in 7.0 mi NW 25.3 mph 32.2 mph N/A   Overcast
6:15 AM 23.0 °F 5.4 °F 15.8 °F 74% 30.05 in 5.0 mi NW 29.9 mph 40.3 mph N/A   Haze
6:35 AM 21.2 °F 3.9 °F 14.0 °F 74% 30.06 in 7.0 mi NW 26.5 mph 35.7 mph N/A   Overcast
6:55 AM 21.2 °F 4.2 °F 14.0 °F 74% 30.08 in 10.0 mi NW 25.3 mph 33.4 mph N/A   Overcast
7:15 AM 19.4 °F 2.5 °F 12.2 °F 74% 30.08 in 10.0 mi NW 23.0 mph 29.9 mph N/A   Overcast
7:35 AM 19.4 °F 3.6 °F 12.2 °F 74% 30.09 in 10.0 mi NW 19.6 mph 28.8 mph N/A   Overcast
7:55 AM 19.4 °F 5.0 °F 12.2 °F 74% 30.11 in 10.0 mi NW 16.1 mph 21.9 mph N/A   Scattered Clouds
8:15 AM 19.4 °F 4.5 °F 15.8 °F 86% 30.12 in 10.0 mi NW 17.3 mph 23.0 mph N/A   Scattered Clouds
8:35 AM 19.4 °F 3.2 °F 15.8 °F 86% 30.12 in 7.0 mi NW 20.7 mph 24.2 mph N/A   Overcast
8:55 AM 19.4 °F 4.5 °F 15.8 °F 86% 30.13 in 10.0 mi NW 17.3 mph 23.0 mph N/A   Mostly Cloudy
9:15 AM 21.2 °F 5.2 °F 14.0 °F 74% 30.13 in 10.0 mi NW 21.9 mph 27.6 mph N/A   Scattered Clouds
9:35 AM 21.2 °F 7.3 °F 14.0 °F 74% 30.14 in 10.0 mi WNW 16.1 mph - N/A   Clear
9:55 AM 21.2 °F 7.3 °F 12.2 °F 68% 30.15 in 10.0 mi WNW 16.1 mph 24.2 mph N/A   Clear
10:15 AM 21.2 °F 6.4 °F 14.0 °F 74% 30.16 in 10.0 mi WNW 18.4 mph 25.3 mph N/A   Clear
10:35 AM 21.2 °F 6.8 °F 14.0 °F 74% 30.16 in 10.0 mi NW 17.3 mph 24.2 mph N/A   Clear
10:55 AM 23.0 °F 11.7 °F 15.8 °F 74% 30.17 in 10.0 mi WNW 11.5 mph - N/A   Clear
11:15 AM 23.0 °F 10.6 °F 15.8 °F 74% 30.19 in 10.0 mi WNW 13.8 mph - N/A   Clear
11:35 AM 23.0 °F 10.1 °F 12.2 °F 63% 30.17 in 10.0 mi WNW 15.0 mph - N/A   Clear
11:55 AM 23.0 °F 11.1 °F 14.0 °F 68% 30.17 in 10.0 mi WNW 12.7 mph - N/A   Clear
12:15 PM 24.8 °F 14.0 °F 14.0 °F 64% 30.16 in 10.0 mi WNW 11.5 mph - N/A   Clear
12:35 PM 24.8 °F 12.9 °F 14.0 °F 64% 30.16 in 10.0 mi WNW 13.8 mph - N/A   Clear
12:55 PM 24.8 °F 12.9 °F 14.0 °F 64% 30.15 in 10.0 mi WNW 13.8 mph - N/A   Scattered Clouds
1:15 PM 26.6 °F 15.7 °F 15.8 °F 64% 30.15 in 10.0 mi WNW 12.7 mph - N/A   Mostly Cloudy
1:35 PM 26.6 °F 16.8 °F 14.0 °F 59% 30.13 in 10.0 mi NW 10.4 mph 18.4 mph N/A   Overcast
1:55 PM 26.6 °F 17.5 °F 15.8 °F 64% 30.13 in 10.0 mi WNW 9.2 mph - N/A   Overcast
2:15 PM 26.6 °F 18.2 °F 15.8 °F 64% 30.13 in 10.0 mi West 8.1 mph - N/A   Overcast
2:35 PM 26.6 °F 18.2 °F 15.8 °F 64% 30.13 in 10.0 mi West 8.1 mph - N/A   Overcast
2:55 PM 28.4 °F 20.4 °F 14.0 °F 55% 30.12 in 10.0 mi West 8.1 mph - N/A   Overcast
3:15 PM 28.4 °F 23.3 °F 14.0 °F 55% 30.11 in 10.0 mi West 4.6 mph - N/A   Overcast
3:35 PM 28.4 °F 22.2 °F 15.8 °F 59% 30.10 in 10.0 mi SW 5.8 mph - N/A   Overcast
3:55 PM 28.4 °F 20.4 °F 15.8 °F 59% 30.09 in 10.0 mi SSW 8.1 mph - N/A   Scattered Clouds
4:15 PM 28.4 °F 22.2 °F 12.2 °F 51% 30.07 in 10.0 mi SSW 5.8 mph - N/A   Clear
4:35 PM 28.4 °F 21.2 °F 15.8 °F 59% 30.07 in 10.0 mi South 6.9 mph - N/A   Clear
4:55 PM 28.4 °F 20.4 °F 15.8 °F 59% 30.06 in 10.0 mi SSW 8.1 mph - N/A   Clear
5:15 PM 28.4 °F 23.3 °F 14.0 °F 55% 30.05 in 10.0 mi SSW 4.6 mph - N/A   Clear
5:35 PM 26.6 °F 22.6 °F 15.8 °F 64% 30.05 in 10.0 mi South 3.5 mph - N/A   Clear
5:55 PM 26.6 °F 20.0 °F 15.8 °F 64% 30.04 in 10.0 mi South 5.8 mph - N/A   Clear
6:15 PM 26.6 °F 21.2 °F 15.8 °F 64% 30.04 in 10.0 mi South 4.6 mph - N/A   Clear
6:35 PM 24.8 °F 19.1 °F 15.8 °F 69% 30.05 in 10.0 mi South 4.6 mph - N/A   Clear
6:55 PM 24.8 °F 17.9 °F 15.8 °F 69% 30.05 in 10.0 mi South 5.8 mph - N/A   Clear
7:15 PM 24.8 °F 17.9 °F 15.8 °F 69% 30.04 in 10.0 mi South 5.8 mph - N/A   Clear
7:35 PM 24.8 °F 16.1 °F 15.8 °F 69% 30.04 in 10.0 mi South 8.1 mph - N/A   Clear
7:55 PM 24.8 °F 17.9 °F 15.8 °F 69% 30.03 in 10.0 mi South 5.8 mph - N/A   Clear
8:15 PM 24.8 °F 17.9 °F 15.8 °F 69% 30.02 in 10.0 mi South 5.8 mph - N/A   Clear
8:35 PM 26.6 °F 20.0 °F 15.8 °F 64% 30.02 in 10.0 mi South 5.8 mph - N/A   Clear
8:55 PM 24.8 °F 16.1 °F 15.8 °F 69% 30.01 in 10.0 mi South 8.1 mph - N/A   Clear
9:15 PM 24.8 °F 16.1 °F 15.8 °F 69% 30.01 in 10.0 mi South 8.1 mph - N/A   Clear
9:35 PM 24.8 °F 15.3 °F 15.8 °F 69% 30.00 in 10.0 mi SSE 9.2 mph - N/A   Scattered Clouds
9:55 PM 26.6 °F 16.8 °F 15.8 °F 64% 29.98 in 10.0 mi South 10.4 mph - N/A   Overcast
10:15 PM 24.8 °F 16.1 °F 17.6 °F 74% 29.97 in 10.0 mi SSE 8.1 mph - N/A   Overcast
10:35 PM 24.8 °F 14.6 °F 17.6 °F 74% 29.97 in 10.0 mi South 10.4 mph - N/A   Overcast
10:55 PM 24.8 °F 15.3 °F 15.8 °F 69% 29.96 in 10.0 mi South 9.2 mph - N/A   Overcast
11:15 PM 24.8 °F 14.0 °F 15.8 °F 69% 29.95 in 10.0 mi South 11.5 mph - N/A   Mostly Cloudy
11:35 PM 24.8 °F 13.4 °F 15.8 °F 69% 29.93 in 10.0 mi South 12.7 mph - N/A   Scattered Clouds
11:55 PM 24.8 °F 12.4 °F 15.8 °F 69% 29.92 in 10.0 mi South 15.0 mph 18.4 mph N/A   Clear